FW6247 Weather Reports


Display with metric or nautical units.
time (UTC)temp
F
wind
direction
speed
MPH
gust
MPH
rain 1hr
in
rain 24hr
in
rain mn
in
humidity
%
barometer
mb
20260506224607 75 291 6.0 16.0 0.00 0.00 0.00 45 1018.1
20260506223029 74 292 7.0 17.0 0.00 0.00 0.00 45 1018.3
20260506221528 75 300 7.0 18.0 0.00 0.00 0.00 45 1018.2
20260506214528 75 287 8.0 21.0 0.00 0.00 0.00 43 1018.0
20260506213035 75 267 9.0 21.0 0.00 0.00 0.00 45 1017.9
20260506211534 74 278 6.0 16.0 0.00 0.00 0.00 50 1018.1
20260506210106 74 305 6.0 17.0 0.00 0.00 0.00 49 1018.2
20260506203030 75 312 5.0 18.0 0.00 0.00 0.00 48 1018.1
20260506201540 75 326 3.0 12.0 0.00 0.00 0.00 50 1018.2
20260506200029 74 324 4.0 18.0 0.00 0.00 0.00 52 1018.3
20260506193034 73 308 5.0 17.0 0.00 0.00 0.00 53 1018.4
20260506191531 72 342 3.0 11.0 0.00 0.00 0.00 57 1018.6
20260506190031 70 328 3.0 11.0 0.00 0.00 0.00 59 1018.6
20260506184531 69 325 3.0 15.0 0.00 0.00 0.00 59 1018.6
20260506183029 70 331 3.0 14.0 0.00 0.00 0.00 58 1018.6
20260506180029 73 330 2.0 9.0 0.00 0.00 0.00 57 1018.6
20260506174647 72 323 1.0 10.0 0.00 0.00 0.00 58 1018.6
20260506173031 70 287 1.0 8.0 0.00 0.00 0.00 61 1018.6
20260506171530 67 21 1.0 5.0 0.00 0.00 0.00 63 1018.6
20260506164546 67 296 0.0 6.0 0.00 0.00 0.00 69 1019.0
20260506164530 67 150 0.0 1.0 0.00 0.00 0.00 72 1019.1
20260506154529 58 128 0.0 3.0 0.00 0.00 0.00 88 1018.9
20260506153107 56 157 0.0 3.0 0.00 0.00 0.00 90 1019.0
20260506151529 55 157 0.0 0.0 0.00 0.00 0.00 92 1019.0
20260506150029 53 157 0.0 0.0 0.00 0.00 0.00 93 1018.9
20260506144529 51 157 0.0 0.0 0.00 0.00 0.00 94 1018.9
20260506143029 50 157 0.0 0.0 0.00 0.00 0.00 94 1018.8
20260506141530 49 157 0.0 0.0 0.00 0.00 0.00 94 1018.7
20260506140031 48 157 0.0 0.0 0.00 0.00 0.00 94 1018.5
20260506134533 47 178 0.0 2.0 0.00 0.00 0.00 94 1018.3
20260506133032 47 180 0.0 0.0 0.00 0.00 0.00 93 1018.2
20260506131607 47 171 1.0 5.0 0.00 0.00 0.00 93 1018.1
20260506123031 47 160 4.0 7.0 0.00 0.00 0.00 93 1017.7
20260506120036 47 164 2.0 5.0 0.00 0.00 0.00 93 1017.4
20260506114529 47 172 0.0 4.0 0.00 0.00 0.00 93 1017.4
20260506111532 46 157 2.0 4.0 0.00 0.00 0.00 92 1017.2
20260506110028 47 157 0.0 1.0 0.00 0.00 0.00 92 1017.0
20260506104530 47 157 0.0 1.0 0.00 0.00 0.00 92 1016.9
20260506103146 47 157 0.0 3.0 0.00 0.00 0.00 92 1016.9
20260506101530 48 157 1.0 4.0 0.00 0.00 0.00 92 1016.9
20260506094531 47 158 3.0 6.0 0.00 0.00 0.00 91 1016.8
20260506093029 47 157 0.0 2.0 0.00 0.00 0.00 91 1016.7
20260506091528 48 157 0.0 0.0 0.00 0.00 0.00 91 1016.7
20260506090104 49 157 0.0 4.0 0.00 0.00 0.00 91 1016.6
20260506084644 49 160 2.0 5.0 0.00 0.00 0.00 90 1016.5
20260506083110 49 157 2.0 4.0 0.00 0.00 0.00 90 1016.5
20260506081529 49 157 2.0 4.0 0.00 0.00 0.00 90 1016.3
20260506073032 49 116 0.0 3.0 0.00 0.00 0.00 88 1016.0
20260506061531 52 90 0.0 0.0 0.00 0.00 0.00 86 1015.6
20260506043031 55 67 0.0 0.0 0.00 0.00 0.00 80 1014.8
20260506041530 56 67 0.0 0.0 0.00 0.00 0.00 78 1014.6
20260506040035 57 67 0.0 0.0 0.00 0.00 0.00 75 1014.4
20260506034533 60 67 0.0 0.0 0.00 0.00 0.00 70 1014.1
20260506033029 62 67 0.0 1.0 0.00 0.00 0.00 67 1014.0
20260506031531 64 67 2.0 3.0 0.00 0.00 0.00 66 1013.8
20260506030028 66 49 1.0 3.0 0.00 0.00 0.00 63 1013.6
20260506024531 67 61 2.0 3.0 0.00 0.00 0.00 61 1013.5
20260506023035 69 55 1.0 4.0 0.00 0.00 0.00 57 1013.5
20260506021606 71 6 0.0 3.0 0.00 0.00 0.00 53 1013.4
20260506014530 73 20 0.0 5.0 0.00 0.00 0.00 52 1013.3
20260506013029 74 4 0.0 5.0 0.00 0.00 0.00 51 1013.3
20260506010028 76 329 1.0 6.0 0.00 0.00 0.00 49 1013.2
20260506004530 77 328 0.0 6.0 0.00 0.00 0.00 48 1013.2
20260506003031 77 326 1.0 7.0 0.00 0.00 0.00 47 1013.1
20260506000033 78 336 1.0 8.0 0.00 0.00 0.00 46 1013.2
20260505234529 78 332 1.0 8.0 0.00 0.00 0.00 47 1013.2
20260505233033 78 335 1.0 8.0 0.00 0.00 0.00 47 1013.4
20260505230144 77 330 1.0 7.0 0.00 0.00 0.00 49 1013.5